Caldwell, NJ

3:50 AM EST on February 08, 2016 (GMT -0500)
Essex County

Weather History for KCDW - October, 2011

Change the Weather History Date:

Sunday, October 9, 2011

  Actual Average Record
Temperature  
Mean Temperature 66 °F -  
Max Temperature 84 °F 66 °F - (-1)
Min Temperature 48 °F 43 °F - (-1)
Cooling Degree Days 1    
Growing Degree Days 16 (Base 50)    
Moisture  
Dew Point 53 °F    
Average Humidity 72    
Maximum Humidity 100    
Minimum Humidity 29    
Precipitation  
Precipitation 0.00 in - - ()
Sea Level Pressure  
Sea Level Pressure 30.38 in    
Wind  
Wind Speed 0 mph (South)    
Max Wind Speed 5 mph    
Max Gust Speed -    
Visibility 9 miles    
Events      
Averages and records for this station are not official NWS values.
T = Trace of Precipitation, MM = Missing Value Source: NWS Daily Summary

Daily Weather History Graph

Daily Weather History Graph

Search for Another Location

Airport or City:

Trip Planner

Search our weather history database for the weather conditions in past years. The results will help you decide how hot, cold, wet, or windy it might be!

Date:

Astronomy

Oct. 09, 2011 Rise Set
Actual Time 7:01 AM EDT 6:26 PM EDT
Civil Twilight 6:34 AM EDT 6:53 PM EDT
Nautical Twilight 6:02 AM EDT 7:25 PM EDT
Astronomical Twilight 5:30 AM EDT 7:57 PM EDT
Moon 5:02 PM EDT (10/9) 4:43 AM EDT (10/9)
Length of Visible Light 12h 19m
Length of Day
11h 24m
Waxing Gibbous, 95% of the Moon is Illuminated
Oct 9
Waxing Gibbous
Oct 11
Full
Oct 19
Last Quarter
Oct 26
New
Nov 2
First Quarter

Hourly Weather History & Observations

Time (EDT) Temp. Heat Index Dew Point Humidity Pressure Visibility Wind Dir Wind Speed Gust Speed Precip Events Conditions
12:53 AM 55.0 °F - 53.1 °F 93% 30.43 in 10.0 mi Calm Calm - N/A   Clear
2:53 AM 52.0 °F - 51.1 °F 97% 30.43 in 9.0 mi Calm Calm - N/A   Clear
3:53 AM 51.1 °F - 51.1 °F 100% 30.43 in 8.0 mi Calm Calm - N/A   Clear
4:53 AM 50.0 °F - 50.0 °F 100% 30.43 in 7.0 mi Calm Calm - N/A   Clear
5:53 AM 48.9 °F - 48.9 °F 100% 30.43 in 7.0 mi Calm Calm - N/A   Clear
6:53 AM 48.9 °F - 48.0 °F 97% 30.44 in 9.0 mi Calm Calm - N/A   Clear
7:53 AM 51.1 °F - 50.0 °F 96% 30.45 in 9.0 mi Calm Calm - N/A   Clear
8:53 AM 59.0 °F - 52.0 °F 78% 30.46 in 10.0 mi Calm Calm - N/A   Clear
9:53 AM 64.9 °F - 54.0 °F 68% 30.45 in 10.0 mi Calm Calm - N/A   Clear
10:53 AM 72.0 °F - 53.1 °F 51% 30.43 in 10.0 mi Calm Calm - N/A   Clear
11:53 AM 79.0 °F - 55.0 °F 44% 30.41 in 10.0 mi NNE 3.5 mph - N/A   Clear
12:53 PM 82.0 °F 81.6 °F 55.9 °F 41% 30.39 in 10.0 mi Calm Calm - N/A   Clear
1:53 PM 82.9 °F 81.8 °F 53.1 °F 36% 30.36 in 10.0 mi NNW 3.5 mph - N/A   Clear
2:53 PM 84.0 °F - 48.9 °F 29% 30.35 in 10.0 mi Variable 4.6 mph - N/A   Clear
3:53 PM 84.0 °F - 51.1 °F 32% 30.32 in 10.0 mi Calm Calm - N/A   Clear
4:53 PM 82.9 °F - 52.0 °F 34% 30.32 in 10.0 mi Calm Calm - N/A   Clear
5:53 PM 77.0 °F - 57.0 °F 50% 30.32 in 10.0 mi Calm Calm - N/A   Clear
6:53 PM 70.0 °F - 59.0 °F 68% 30.32 in 10.0 mi Calm Calm - N/A   Clear
8:53 PM 62.1 °F - 57.9 °F 86% 30.33 in 10.0 mi Calm Calm - N/A   Clear
9:53 PM 60.1 °F - 57.0 °F 90% 30.32 in 10.0 mi Calm Calm - N/A   Clear
10:53 PM 57.9 °F - 57.0 °F 97% 30.33 in 9.0 mi Calm Calm - N/A   Clear
11:53 PM 57.0 °F - 55.9 °F 96% 30.32 in 9.0 mi Calm Calm - N/A   Clear